Wetterdaten: Dienstag, 07.06.2016
Datum Zeit Auen-Temp. Temp gefhlt Luftfeuchte Luftdruck Regen Wind Richtung Richtung Sonnenschein Taupunkt Windben
07.06.2016 00:00 12,3 C 14,0 C 83 % 1020,8 hPa 0,0 mm 0,0 km/h (0 Bft) S-SO 157 0 min 9,5 C 0,0 km/h (0 Bft)
07.06.2016 00:05 12,4 C 14,0 C 83 % 1020,8 hPa 0,0 mm 0,0 km/h (0 Bft) S-SO 157 0 min 9,6 C 0,0 km/h (0 Bft)
07.06.2016 00:10 12,2 C 14,0 C 83 % 1020,7 hPa 0,0 mm 0,0 km/h (0 Bft) S-SO 157 0 min 9,4 C 0,0 km/h (0 Bft)
07.06.2016 00:15 12,2 C 14,0 C 83 % 1020,7 hPa 0,0 mm 0,0 km/h (0 Bft) S-SO 157 0 min 9,4 C 0,0 km/h (0 Bft)
07.06.2016 00:20 12,1 C 14,0 C 84 % 1020,7 hPa 0,0 mm 0,0 km/h (0 Bft) S-SO 157 0 min 9,5 C 0,0 km/h (0 Bft)
07.06.2016 00:25 12,1 C 14,0 C 84 % 1020,7 hPa 0,0 mm 0,0 km/h (0 Bft) S-SO 157 0 min 9,5 C 0,0 km/h (0 Bft)
07.06.2016 00:30 12,0 C 14,0 C 84 % 1020,6 hPa 0,0 mm 0,0 km/h (0 Bft) S-SO 157 0 min 9,4 C 0,0 km/h (0 Bft)
07.06.2016 00:35 12,0 C 14,0 C 84 % 1020,6 hPa 0,0 mm 0,0 km/h (0 Bft) S-SO 157 0 min 9,4 C 0,0 km/h (0 Bft)
07.06.2016 00:40 12,0 C 14,0 C 84 % 1020,6 hPa 0,0 mm 0,0 km/h (0 Bft) S-SO 157 0 min 9,4 C 0,0 km/h (0 Bft)
07.06.2016 00:45 11,9 C 14,0 C 84 % 1020,6 hPa 0,0 mm 0,0 km/h (0 Bft) S-SO 157 0 min 9,3 C 0,0 km/h (0 Bft)
07.06.2016 00:50 11,9 C 14,0 C 85 % 1020,6 hPa 0,0 mm 0,0 km/h (0 Bft) S-SO 157 0 min 9,5 C 0,0 km/h (0 Bft)
07.06.2016 00:55 11,9 C 14,0 C 85 % 1020,6 hPa 0,0 mm 0,0 km/h (0 Bft) S-SO 157 0 min 9,5 C 0,0 km/h (0 Bft)
07.06.2016 01:00 12,0 C 14,0 C 85 % 1020,6 hPa 0,0 mm 0,0 km/h (0 Bft) S-SO 157 0 min 9,6 C 0,0 km/h (0 Bft)
07.06.2016 01:05 12,0 C 14,0 C 85 % 1020,6 hPa 0,0 mm 0,0 km/h (0 Bft) S-SO 157 0 min 9,6 C 0,0 km/h (0 Bft)
07.06.2016 01:10 11,9 C 14,0 C 85 % 1020,6 hPa 0,0 mm 0,0 km/h (0 Bft) S-SO 157 0 min 9,5 C 0,0 km/h (0 Bft)
07.06.2016 01:15 11,7 C 14,0 C 85 % 1020,6 hPa 0,0 mm 0,0 km/h (0 Bft) S-SO 157 0 min 9,3 C 0,0 km/h (0 Bft)
07.06.2016 01:20 11,5 C 14,0 C 85 % 1020,6 hPa 0,0 mm 0,0 km/h (0 Bft) S-SO 157 0 min 9,1 C 0,0 km/h (0 Bft)
07.06.2016 01:25 11,4 C 14,0 C 85 % 1020,6 hPa 0,0 mm 0,0 km/h (0 Bft) S-SO 157 0 min 9,0 C 0,0 km/h (0 Bft)
07.06.2016 01:30 11,3 C 14,0 C 85 % 1020,7 hPa 0,0 mm 0,0 km/h (0 Bft) S-SO 157 0 min 8,9 C 0,0 km/h (0 Bft)
07.06.2016 01:35 11,2 C 14,0 C 85 % 1020,7 hPa 0,0 mm 0,0 km/h (0 Bft) S-SO 157 0 min 8,8 C 0,0 km/h (0 Bft)
07.06.2016 01:40 11,1 C 14,0 C 85 % 1020,7 hPa 0,0 mm 0,0 km/h (0 Bft) S-SO 157 0 min 8,7 C 0,0 km/h (0 Bft)
07.06.2016 01:45 11,1 C 14,0 C 85 % 1020,7 hPa 0,0 mm 0,0 km/h (0 Bft) S-SO 157 0 min 8,7 C 0,0 km/h (0 Bft)
07.06.2016 01:48 11,1 C 7,3 C 85 % 1020,8 hPa 0,0 mm 0,0 km/h (0 Bft) S-SO 157 0 min 8,7 C 0,0 km/h (0 Bft)
07.06.2016 01:50 11,1 C 7,3 C 85 % 1020,8 hPa 0,0 mm 0,0 km/h (0 Bft) S-SO 157 0 min 8,7 C 0,0 km/h (0 Bft)
07.06.2016 01:55 11,0 C 7,2 C 85 % 1020,8 hPa 0,0 mm 0,0 km/h (0 Bft) S-SO 157 0 min 8,6 C 0,0 km/h (0 Bft)
07.06.2016 02:00 10,9 C 7,2 C 85 % 1020,8 hPa 0,0 mm 0,0 km/h (0 Bft) S-SO 157 0 min 8,5 C 0,0 km/h (0 Bft)
07.06.2016 02:05 10,9 C 7,1 C 86 % 1020,8 hPa 0,0 mm 0,0 km/h (0 Bft) S-SO 157 0 min 8,7 C 0,0 km/h (0 Bft)
07.06.2016 02:10 10,8 C 6,9 C 85 % 1020,6 hPa 0,0 mm 0,0 km/h (0 Bft) S-SO 157 0 min 8,4 C 0,0 km/h (0 Bft)
07.06.2016 02:15 10,7 C 7,0 C 85 % 1020,6 hPa 0,0 mm 0,0 km/h (0 Bft) S-SO 157 0 min 8,3 C 0,0 km/h (0 Bft)
07.06.2016 02:20 10,6 C 6,8 C 85 % 1020,6 hPa 0,0 mm 0,0 km/h (0 Bft) S-SO 157 0 min 8,2 C 0,0 km/h (0 Bft)
07.06.2016 02:25 10,7 C 6,9 C 86 % 1020,6 hPa 0,0 mm 0,0 km/h (0 Bft) S-SO 157 0 min 8,5 C 0,0 km/h (0 Bft)
07.06.2016 02:30 10,7 C 7,0 C 86 % 1020,6 hPa 0,0 mm 0,0 km/h (0 Bft) S-SO 157 0 min 8,5 C 0,0 km/h (0 Bft)
07.06.2016 02:35 10,7 C 7,0 C 86 % 1020,6 hPa 0,0 mm 0,0 km/h (0 Bft) S-SO 157 0 min 8,5 C 0,0 km/h (0 Bft)
07.06.2016 02:40 10,8 C 7,0 C 86 % 1020,6 hPa 0,0 mm 0,0 km/h (0 Bft) S-SO 157 0 min 8,6 C 0,0 km/h (0 Bft)
07.06.2016 02:45 10,6 C 6,9 C 86 % 1020,6 hPa 0,0 mm 0,0 km/h (0 Bft) S-SO 157 0 min 8,4 C 0,0 km/h (0 Bft)
07.06.2016 02:50 10,5 C 6,9 C 86 % 1020,6 hPa 0,0 mm 0,0 km/h (0 Bft) S-SO 157 0 min 8,3 C 0,0 km/h (0 Bft)
07.06.2016 02:55 10,3 C 6,7 C 86 % 1020,6 hPa 0,0 mm 0,0 km/h (0 Bft) S-SO 157 0 min 8,1 C 0,0 km/h (0 Bft)
07.06.2016 03:00 10,2 C 6,6 C 86 % 1020,6 hPa 0,0 mm 0,0 km/h (0 Bft) S-SO 157 0 min 8,0 C 0,0 km/h (0 Bft)
07.06.2016 03:05 10,2 C 6,7 C 86 % 1020,6 hPa 0,0 mm 0,0 km/h (0 Bft) S-SO 157 0 min 8,0 C 0,0 km/h (0 Bft)
07.06.2016 03:10 10,1 C 6,6 C 86 % 1020,6 hPa 0,0 mm 0,0 km/h (0 Bft) S-SO 157 0 min 7,9 C 0,0 km/h (0 Bft)
07.06.2016 03:15 10,1 C 6,6 C 86 % 1020,6 hPa 0,0 mm 0,0 km/h (0 Bft) S-SO 157 0 min 7,9 C 0,0 km/h (0 Bft)
07.06.2016 03:20 10,2 C 6,7 C 86 % 1020,6 hPa 0,0 mm 0,0 km/h (0 Bft) S-SO 157 0 min 8,0 C 0,0 km/h (0 Bft)
07.06.2016 03:25 10,2 C 6,8 C 86 % 1020,6 hPa 0,0 mm 0,0 km/h (0 Bft) S-SO 157 0 min 8,0 C 0,0 km/h (0 Bft)
07.06.2016 03:30 10,4 C 6,8 C 86 % 1020,6 hPa 0,0 mm 0,0 km/h (0 Bft) S-SO 157 0 min 8,2 C 0,0 km/h (0 Bft)
07.06.2016 03:35 10,4 C 6,7 C 86 % 1020,6 hPa 0,0 mm 0,0 km/h (0 Bft) S-SO 157 0 min 8,2 C 0,0 km/h (0 Bft)
07.06.2016 03:40 10,4 C 6,8 C 86 % 1020,6 hPa 0,0 mm 0,0 km/h (0 Bft) S-SO 157 0 min 8,2 C 0,0 km/h (0 Bft)
07.06.2016 03:45 10,3 C 6,6 C 86 % 1020,6 hPa 0,0 mm 0,0 km/h (0 Bft) S-SO 157 0 min 8,1 C 0,0 km/h (0 Bft)
07.06.2016 03:50 10,1 C 6,5 C 86 % 1020,4 hPa 0,0 mm 0,0 km/h (0 Bft) S-SO 157 0 min 7,9 C 0,0 km/h (0 Bft)
07.06.2016 03:55 10,1 C 6,5 C 86 % 1020,4 hPa 0,0 mm 0,0 km/h (0 Bft) S-SO 157 0 min 7,9 C 0,0 km/h (0 Bft)
07.06.2016 04:00 10,2 C 6,7 C 86 % 1020,4 hPa 0,0 mm 0,0 km/h (0 Bft) S-SO 157 0 min 8,0 C 0,0 km/h (0 Bft)
07.06.2016 04:05 10,1 C 6,5 C 86 % 1020,4 hPa 0,0 mm 0,0 km/h (0 Bft) S-SO 157 0 min 7,9 C 0,0 km/h (0 Bft)
07.06.2016 04:10 10,2 C 6,5 C 86 % 1020,5 hPa 0,0 mm 0,0 km/h (0 Bft) S-SO 157 0 min 8,0 C 0,0 km/h (0 Bft)
07.06.2016 04:15 10,1 C 6,5 C 86 % 1020,5 hPa 0,0 mm 0,0 km/h (0 Bft) S-SO 157 0 min 7,9 C 0,0 km/h (0 Bft)
07.06.2016 04:20 10,0 C 6,6 C 86 % 1020,5 hPa 0,0 mm 0,0 km/h (0 Bft) S-SO 157 0 min 7,8 C 0,0 km/h (0 Bft)
07.06.2016 04:25 9,8 C 6,4 C 86 % 1020,5 hPa 0,0 mm 0,0 km/h (0 Bft) S-SO 157 0 min 7,6 C 0,0 km/h (0 Bft)
07.06.2016 04:30 9,6 C 6,2 C 86 % 1020,3 hPa 0,0 mm 0,0 km/h (0 Bft) S-SO 157 0 min 7,4 C 0,0 km/h (0 Bft)
07.06.2016 04:35 9,5 C 6,2 C 86 % 1020,3 hPa 0,0 mm 0,0 km/h (0 Bft) S-SO 157 0 min 7,3 C 0,0 km/h (0 Bft)
07.06.2016 04:40 9,6 C 6,3 C 86 % 1020,3 hPa 0,0 mm 0,0 km/h (0 Bft) S-SO 157 0 min 7,4 C 0,0 km/h (0 Bft)
07.06.2016 04:45 9,8 C 6,3 C 87 % 1020,3 hPa 0,0 mm 0,0 km/h (0 Bft) S-SO 157 0 min 7,7 C 0,0 km/h (0 Bft)
07.06.2016 04:48 9,8 C 6,3 C 87 % 1020,3 hPa 0,0 mm 0,0 km/h (0 Bft) S-SO 157 0 min 7,7 C 0,0 km/h (0 Bft)
07.06.2016 04:51 9,8 C 6,3 C 87 % 1020,3 hPa 0,0 mm 0,0 km/h (0 Bft) S-SO 157 0 min 7,7 C 0,0 km/h (0 Bft)
07.06.2016 04:55 9,7 C 6,3 C 87 % 1020,3 hPa 0,0 mm 0,0 km/h (0 Bft) S-SO 157 0 min 7,6 C 0,0 km/h (0 Bft)
07.06.2016 05:00 9,7 C 6,4 C 87 % 1020,3 hPa 0,0 mm 0,0 km/h (0 Bft) S-SO 157 0 min 7,6 C 0,0 km/h (0 Bft)
07.06.2016 05:05 9,6 C 6,3 C 87 % 1020,3 hPa 0,0 mm 0,0 km/h (0 Bft) S-SO 157 0 min 7,5 C 0,0 km/h (0 Bft)
07.06.2016 05:10 9,4 C 6,1 C 87 % 1020,2 hPa 0,0 mm 0,0 km/h (0 Bft) S-SO 157 0 min 7,3 C 0,0 km/h (0 Bft)
07.06.2016 05:15 9,3 C 6,0 C 87 % 1020,2 hPa 0,0 mm 0,0 km/h (0 Bft) S-SO 157 0 min 7,2 C 0,0 km/h (0 Bft)
07.06.2016 05:20 9,1 C 5,9 C 87 % 1020,2 hPa 0,0 mm 0,0 km/h (0 Bft) S-SO 157 0 min 7,1 C 0,0 km/h (0 Bft)
07.06.2016 05:25 9,1 C 5,8 C 87 % 1020,2 hPa 0,0 mm 0,0 km/h (0 Bft) S-SO 157 0 min 7,1 C 0,0 km/h (0 Bft)
07.06.2016 05:30 9,1 C 5,8 C 87 % 1020,4 hPa 0,0 mm 0,0 km/h (0 Bft) S-SO 157 0 min 7,1 C 0,0 km/h (0 Bft)
07.06.2016 05:35 9,1 C 6,0 C 87 % 1020,4 hPa 0,0 mm 0,0 km/h (0 Bft) S-SO 157 0 min 7,1 C 0,0 km/h (0 Bft)
07.06.2016 05:40 9,1 C 5,9 C 87 % 1020,4 hPa 0,0 mm 0,0 km/h (0 Bft) S-SO 157 0 min 7,1 C 0,0 km/h (0 Bft)
07.06.2016 05:45 9,3 C 6,1 C 87 % 1020,4 hPa 0,0 mm 0,0 km/h (0 Bft) S-SO 157 0 min 7,2 C 0,0 km/h (0 Bft)
07.06.2016 05:50 9,8 C 6,5 C 87 % 1020,5 hPa 0,0 mm 0,0 km/h (0 Bft) S-SO 157 0 min 7,7 C 0,0 km/h (0 Bft)
07.06.2016 05:55 9,7 C 6,5 C 87 % 1020,5 hPa 0,0 mm 0,0 km/h (0 Bft) S-SO 157 0 min 7,6 C 0,0 km/h (0 Bft)
07.06.2016 06:00 9,8 C 6,6 C 87 % 1020,5 hPa 0,0 mm 0,0 km/h (0 Bft) S-SO 157 0 min 7,7 C 0,0 km/h (0 Bft)
07.06.2016 06:05 9,8 C 6,7 C 87 % 1020,5 hPa 0,0 mm 0,0 km/h (0 Bft) S-SO 157 0 min 7,7 C 0,0 km/h (0 Bft)
07.06.2016 06:10 10,7 C 7,3 C 87 % 1020,8 hPa 0,0 mm 0,0 km/h (0 Bft) S-SO 157 0 min 8,6 C 0,0 km/h (0 Bft)
07.06.2016 06:15 10,8 C 7,1 C 87 % 1020,8 hPa 0,0 mm 0,0 km/h (0 Bft) S-SO 157 0 min 8,7 C 0,0 km/h (0 Bft)
07.06.2016 06:20 11,1 C 7,9 C 87 % 1020,8 hPa 0,0 mm 0,0 km/h (0 Bft) S-SO 157 0 min 9,0 C 0,0 km/h (0 Bft)
07.06.2016 06:25 11,5 C 8,1 C 87 % 1020,8 hPa 0,0 mm 0,0 km/h (0 Bft) S-SO 157 0 min 9,4 C 0,0 km/h (0 Bft)
07.06.2016 06:30 11,8 C 8,1 C 87 % 1020,9 hPa 0,0 mm 0,0 km/h (0 Bft) S-SO 157 0 min 9,7 C 0,0 km/h (0 Bft)
07.06.2016 06:35 11,9 C 8,3 C 87 % 1020,9 hPa 0,0 mm 0,0 km/h (0 Bft) S-SO 157 0 min 9,8 C 0,0 km/h (0 Bft)
07.06.2016 06:40 12,3 C 8,5 C 87 % 1020,9 hPa 0,0 mm 0,0 km/h (0 Bft) S-SO 157 0 min 10,2 C 0,0 km/h (0 Bft)
07.06.2016 06:45 12,6 C 8,6 C 87 % 1020,9 hPa 0,0 mm 0,0 km/h (0 Bft) S-SO 157 0 min 10,5 C 0,0 km/h (0 Bft)
07.06.2016 06:50 12,9 C 9,4 C 87 % 1020,9 hPa 0,0 mm 0,0 km/h (0 Bft) S-SO 157 0 min 10,8 C 0,0 km/h (0 Bft)
07.06.2016 06:55 13,6 C 19,3 C 86 % 1020,9 hPa 0,0 mm 0,0 km/h (0 Bft) O-NO 67 5 min 11,3 C 0,0 km/h (0 Bft)
07.06.2016 07:00 14,3 C 19,3 C 85 % 1020,9 hPa 0,0 mm 0,0 km/h (0 Bft) O-NO 67 5 min 11,8 C 0,0 km/h (0 Bft)
07.06.2016 07:05 14,4 C 19,3 C 85 % 1020,9 hPa 0,0 mm 0,0 km/h (0 Bft) O-NO 67 5 min 11,9 C 0,0 km/h (0 Bft)
07.06.2016 07:10 15,0 C 19,3 C 84 % 1021,0 hPa 0,0 mm 0,0 km/h (0 Bft) O-NO 67 5 min 12,3 C 0,0 km/h (0 Bft)
07.06.2016 07:15 15,3 C 19,3 C 83 % 1021,0 hPa 0,0 mm 0,0 km/h (0 Bft) O-NO 67 5 min 12,4 C 0,0 km/h (0 Bft)
07.06.2016 07:20 16,0 C 19,3 C 81 % 1021,0 hPa 0,0 mm 0,0 km/h (0 Bft) O-NO 67 5 min 12,7 C 0,0 km/h (0 Bft)
07.06.2016 07:25 16,3 C 19,3 C 80 % 1021,0 hPa 0,0 mm 0,0 km/h (0 Bft) O-NO 67 0 min 12,8 C 0,0 km/h (0 Bft)
07.06.2016 07:30 16,7 C 19,3 C 79 % 1021,2 hPa 0,0 mm 0,0 km/h (0 Bft) O-NO 67 0 min 13,0 C 0,0 km/h (0 Bft)
07.06.2016 07:35 17,3 C 19,3 C 78 % 1021,2 hPa 0,0 mm 0,0 km/h (0 Bft) O-NO 67 0 min 13,4 C 0,0 km/h (0 Bft)
07.06.2016 07:40 17,5 C 19,3 C 76 % 1021,2 hPa 0,0 mm 0,0 km/h (0 Bft) O-NO 67 0 min 13,2 C 0,0 km/h (0 Bft)
07.06.2016 07:45 17,6 C 19,3 C 75 % 1021,2 hPa 0,0 mm 0,0 km/h (0 Bft) O-NO 67 0 min 13,1 C 0,0 km/h (0 Bft)
07.06.2016 07:50 17,9 C 19,3 C 74 % 1021,6 hPa 0,0 mm 0,0 km/h (0 Bft) O-NO 67 0 min 13,2 C 0,0 km/h (0 Bft)
07.06.2016 07:52 17,9 C 19,3 C 74 % 1021,6 hPa 0,0 mm 0,0 km/h (0 Bft) O-NO 67 0 min 13,2 C 0,0 km/h (0 Bft)
07.06.2016 07:55 17,9 C 19,3 C 72 % 1021,6 hPa 0,0 mm 0,0 km/h (0 Bft) O-NO 67 0 min 12,8 C 0,0 km/h (0 Bft)
07.06.2016 08:00 17,9 C 19,4 C 72 % 1021,6 hPa 0,0 mm 0,0 km/h (0 Bft) O-NO 67 0 min 12,8 C 0,0 km/h (0 Bft)
07.06.2016 08:05 18,1 C 19,3 C 72 % 1021,6 hPa 0,0 mm 0,0 km/h (0 Bft) O-NO 67 0 min 13,0 C 0,0 km/h (0 Bft)
07.06.2016 08:10 18,6 C 19,3 C 71 % 1022,0 hPa 0,0 mm 0,0 km/h (0 Bft) O-NO 67 0 min 13,2 C 0,0 km/h (0 Bft)
07.06.2016 08:15 19,0 C 19,4 C 71 % 1022,0 hPa 0,0 mm 0,0 km/h (0 Bft) O-NO 67 0 min 13,6 C 0,0 km/h (0 Bft)
07.06.2016 08:20 19,4 C 20,1 C 69 % 1022,0 hPa 0,0 mm 0,0 km/h (0 Bft) O-NO 67 0 min 13,6 C 0,0 km/h (0 Bft)
07.06.2016 08:25 20,0 C 20,4 C 69 % 1022,0 hPa 0,0 mm 0,0 km/h (0 Bft) O-NO 67 0 min 14,1 C 0,0 km/h (0 Bft)
07.06.2016 08:30 20,2 C 28,4 C 68 % 1022,2 hPa 0,0 mm 0,0 km/h (0 Bft) N 360 5 min 14,1 C 0,0 km/h (0 Bft)
07.06.2016 08:35 20,0 C 28,6 C 67 % 1022,2 hPa 0,0 mm 0,0 km/h (0 Bft) O 90 5 min 13,7 C 0,0 km/h (0 Bft)
07.06.2016 08:40 20,1 C 28,5 C 66 % 1022,2 hPa 0,0 mm 0,3 km/h (0 Bft) NO 45 5 min 13,5 C 0,0 km/h (0 Bft)
07.06.2016 08:45 20,5 C 28,6 C 67 % 1022,2 hPa 0,0 mm 0,3 km/h (0 Bft) N-NO 22 5 min 14,2 C 0,0 km/h (0 Bft)
07.06.2016 08:50 21,2 C 29,3 C 62 % 1022,4 hPa 0,0 mm 0,0 km/h (0 Bft) N-NO 22 5 min 13,6 C 0,0 km/h (0 Bft)
07.06.2016 08:55 21,4 C 29,7 C 63 % 1022,4 hPa 0,0 mm 0,0 km/h (0 Bft) N 360 5 min 14,1 C 0,0 km/h (0 Bft)
07.06.2016 09:00 21,6 C 29,0 C 64 % 1022,4 hPa 0,0 mm 2,7 km/h (1 Bft) W 270 5 min 14,5 C 13,7 km/h (3 Bft)
07.06.2016 09:05 21,4 C 27,9 C 63 % 1022,4 hPa 0,0 mm 6,9 km/h (2 Bft) W 270 5 min 14,1 C 16,1 km/h (3 Bft)
07.06.2016 09:10 21,3 C 27,1 C 64 % 1022,4 hPa 0,0 mm 8,6 km/h (2 Bft) N-NW 337 5 min 14,2 C 7,2 km/h (2 Bft)
07.06.2016 09:15 21,4 C 27,3 C 63 % 1022,4 hPa 0,0 mm 7,7 km/h (2 Bft) W-NW 292 5 min 14,1 C 13,7 km/h (3 Bft)
07.06.2016 09:20 21,6 C 27,4 C 63 % 1022,4 hPa 0,0 mm 6,3 km/h (2 Bft) W-NW 292 5 min 14,2 C 18,5 km/h (3 Bft)
07.06.2016 09:25 21,6 C 27,6 C 62 % 1022,4 hPa 0,0 mm 5,7 km/h (1 Bft) W 270 5 min 14,0 C 12,5 km/h (3 Bft)
07.06.2016 09:30 21,6 C 27,3 C 62 % 1022,4 hPa 0,0 mm 6,6 km/h (2 Bft) SW 225 5 min 14,0 C 6,6 km/h (2 Bft)
07.06.2016 09:35 21,8 C 27,6 C 62 % 1022,4 hPa 0,0 mm 6,6 km/h (2 Bft) W 270 5 min 14,2 C 6,0 km/h (2 Bft)
07.06.2016 09:40 22,0 C 27,9 C 62 % 1022,4 hPa 0,0 mm 5,1 km/h (1 Bft) W-NW 292 5 min 14,4 C 7,2 km/h (2 Bft)
07.06.2016 09:45 22,0 C 27,8 C 61 % 1022,4 hPa 0,0 mm 5,4 km/h (1 Bft) W-SW 247 5 min 14,1 C 7,5 km/h (2 Bft)
07.06.2016 09:50 22,0 C 28,5 C 59 % 1022,9 hPa 0,0 mm 4,2 km/h (1 Bft) W 270 5 min 13,6 C 6,6 km/h (2 Bft)
07.06.2016 09:55 22,1 C 28,4 C 59 % 1022,9 hPa 0,0 mm 4,5 km/h (1 Bft) W-NW 292 5 min 13,7 C 7,5 km/h (2 Bft)
07.06.2016 10:00 22,4 C 28,4 C 59 % 1022,9 hPa 0,0 mm 6,0 km/h (2 Bft) O 90 5 min 14,0 C 0,0 km/h (0 Bft)
07.06.2016 10:05 22,6 C 28,7 C 59 % 1022,9 hPa 0,0 mm 4,5 km/h (1 Bft) N 360 5 min 14,2 C 7,7 km/h (2 Bft)
07.06.2016 10:10 22,6 C 28,7 C 58 % 1023,2 hPa 0,0 mm 4,2 km/h (1 Bft) N-NW 337 5 min 13,9 C 13,4 km/h (3 Bft)
07.06.2016 10:15 22,8 C 28,5 C 58 % 1023,2 hPa 0,0 mm 6,0 km/h (2 Bft) NW 315 5 min 14,1 C 5,4 km/h (1 Bft)
07.06.2016 10:20 22,9 C 28,2 C 58 % 1023,2 hPa 0,0 mm 7,5 km/h (2 Bft) W 270 5 min 14,2 C 9,5 km/h (2 Bft)
07.06.2016 10:25 22,7 C 28,0 C 58 % 1023,2 hPa 0,0 mm 8,3 km/h (2 Bft) NW 315 5 min 14,0 C 6,9 km/h (2 Bft)
07.06.2016 10:30 22,7 C 28,1 C 58 % 1023,2 hPa 0,0 mm 8,0 km/h (2 Bft) NW 315 5 min 14,0 C 13,7 km/h (3 Bft)
07.06.2016 10:35 23,0 C 28,1 C 57 % 1023,2 hPa 0,0 mm 6,3 km/h (2 Bft) NO 45 5 min 14,0 C 11,0 km/h (2 Bft)
07.06.2016 10:40 23,2 C 28,5 C 57 % 1023,2 hPa 0,0 mm 5,7 km/h (1 Bft) NW 315 5 min 14,2 C 7,7 km/h (2 Bft)
07.06.2016 10:45 23,2 C 28,6 C 57 % 1023,2 hPa 0,0 mm 5,7 km/h (1 Bft) S-SW 202 5 min 14,2 C 0,0 km/h (0 Bft)
07.06.2016 10:50 23,3 C 28,6 C 57 % 1023,6 hPa 0,0 mm 6,6 km/h (2 Bft) S-SW 202 5 min 14,3 C 7,2 km/h (2 Bft)
07.06.2016 10:53 23,2 C 28,5 C 55 % 1023,6 hPa 0,0 mm 6,9 km/h (2 Bft) N-NO 22 3 min 13,6 C 5,4 km/h (1 Bft)
07.06.2016 10:55 23,2 C 28,5 C 55 % 1023,6 hPa 0,0 mm 6,9 km/h (2 Bft) N-NO 22 2 min 13,6 C 5,4 km/h (1 Bft)
07.06.2016 11:00 22,6 C 27,9 C 57 % 1023,6 hPa 0,0 mm 7,7 km/h (2 Bft) O-NO 67 5 min 13,6 C 6,6 km/h (2 Bft)
07.06.2016 11:05 22,8 C 28,2 C 56 % 1023,6 hPa 0,0 mm 6,3 km/h (2 Bft) N 360 5 min 13,6 C 11,6 km/h (2 Bft)
07.06.2016 11:10 23,2 C 28,3 C 55 % 1023,7 hPa 0,0 mm 6,0 km/h (2 Bft) NO 45 5 min 13,6 C 19,1 km/h (3 Bft)
07.06.2016 11:15 23,2 C 28,4 C 55 % 1023,7 hPa 0,0 mm 7,7 km/h (2 Bft) N-NO 22 5 min 13,6 C 19,7 km/h (3 Bft)
07.06.2016 11:20 23,5 C 28,8 C 54 % 1023,7 hPa 0,0 mm 5,4 km/h (1 Bft) O-SO 112 5 min 13,6 C 0,0 km/h (0 Bft)
07.06.2016 11:25 24,0 C 29,3 C 55 % 1023,7 hPa 0,0 mm 4,8 km/h (1 Bft) W 270 5 min 14,4 C 5,7 km/h (1 Bft)
07.06.2016 11:30 23,8 C 29,5 C 55 % 1023,8 hPa 0,0 mm 4,8 km/h (1 Bft) NO 45 5 min 14,2 C 10,7 km/h (2 Bft)
07.06.2016 11:35 23,7 C 29,2 C 53 % 1023,8 hPa 0,0 mm 6,6 km/h (2 Bft) N-NO 22 5 min 13,5 C 15,2 km/h (3 Bft)
07.06.2016 11:40 24,1 C 29,5 C 54 % 1023,8 hPa 0,0 mm 7,2 km/h (2 Bft) N-NW 337 5 min 14,2 C 15,2 km/h (3 Bft)
07.06.2016 11:45 23,9 C 29,4 C 51 % 1023,8 hPa 0,0 mm 6,6 km/h (2 Bft) O-NO 67 5 min 13,1 C 6,6 km/h (2 Bft)
07.06.2016 11:50 23,8 C 29,0 C 52 % 1023,8 hPa 0,0 mm 9,2 km/h (2 Bft) N-NW 337 5 min 13,3 C 13,7 km/h (3 Bft)
07.06.2016 11:55 24,0 C 29,2 C 50 % 1023,8 hPa 0,0 mm 7,2 km/h (2 Bft) N-NO 22 5 min 12,9 C 4,8 km/h (1 Bft)
07.06.2016 12:00 24,5 C 30,3 C 52 % 1023,8 hPa 0,0 mm 3,6 km/h (1 Bft) N-NO 22 5 min 14,0 C 0,0 km/h (0 Bft)
07.06.2016 12:05 24,7 C 30,4 C 49 % 1023,8 hPa 0,0 mm 3,6 km/h (1 Bft) N-NW 337 5 min 13,3 C 10,1 km/h (2 Bft)
07.06.2016 12:10 24,7 C 30,7 C 51 % 1023,8 hPa 0,0 mm 5,1 km/h (1 Bft) W-NW 292 5 min 13,9 C 3,0 km/h (1 Bft)
07.06.2016 12:15 24,6 C 30,5 C 49 % 1023,8 hPa 0,0 mm 6,6 km/h (2 Bft) NO 45 5 min 13,2 C 8,6 km/h (2 Bft)
07.06.2016 12:20 24,1 C 29,2 C 53 % 1023,8 hPa 0,0 mm 7,5 km/h (2 Bft) NO 45 5 min 13,9 C 9,8 km/h (2 Bft)
07.06.2016 12:25 23,9 C 29,2 C 55 % 1023,8 hPa 0,0 mm 6,3 km/h (2 Bft) NO 45 5 min 14,3 C 0,0 km/h (0 Bft)
07.06.2016 12:30 24,1 C 29,9 C 49 % 1023,8 hPa 0,0 mm 6,3 km/h (2 Bft) N-NO 22 5 min 12,7 C 15,2 km/h (3 Bft)
07.06.2016 12:35 23,4 C 29,0 C 50 % 1023,8 hPa 0,0 mm 6,9 km/h (2 Bft) NW 315 5 min 12,4 C 3,0 km/h (1 Bft)
07.06.2016 12:40 23,5 C 28,9 C 50 % 1023,8 hPa 0,0 mm 7,2 km/h (2 Bft) O-NO 67 5 min 12,5 C 6,3 km/h (2 Bft)
07.06.2016 12:45 22,9 C 27,1 C 49 % 1023,8 hPa 0,0 mm 7,5 km/h (2 Bft) N-NO 22 5 min 11,6 C 8,0 km/h (2 Bft)
07.06.2016 12:50 23,2 C 26,5 C 49 % 1023,6 hPa 0,0 mm 7,7 km/h (2 Bft) O-NO 67 0 min 11,9 C 21,2 km/h (4 Bft)
07.06.2016 12:55 23,6 C 27,3 C 48 % 1023,6 hPa 0,0 mm 8,9 km/h (2 Bft) N-NO 22 5 min 11,9 C 27,7 km/h (4 Bft)
07.06.2016 13:00 23,7 C 27,7 C 45 % 1023,6 hPa 0,0 mm 10,4 km/h (2 Bft) O-NO 67 5 min 11,1 C 13,4 km/h (3 Bft)
07.06.2016 13:05 23,9 C 28,1 C 47 % 1023,6 hPa 0,0 mm 9,2 km/h (2 Bft) NW 315 5 min 11,9 C 11,3 km/h (2 Bft)
07.06.2016 13:10 23,9 C 28,5 C 45 % 1023,3 hPa 0,0 mm 8,9 km/h (2 Bft) N-NO 22 5 min 11,2 C 15,5 km/h (3 Bft)
07.06.2016 13:15 23,9 C 28,3 C 45 % 1023,3 hPa 0,0 mm 10,1 km/h (2 Bft) O-NO 67 5 min 11,2 C 8,0 km/h (2 Bft)
07.06.2016 13:20 23,8 C 27,9 C 42 % 1023,3 hPa 0,0 mm 13,1 km/h (3 Bft) O-NO 67 5 min 10,1 C 25,3 km/h (4 Bft)
07.06.2016 13:25 23,7 C 27,9 C 42 % 1023,3 hPa 0,0 mm 13,4 km/h (3 Bft) N-NO 22 5 min 10,0 C 22,1 km/h (4 Bft)
07.06.2016 13:30 23,2 C 26,7 C 45 % 1023,2 hPa 0,0 mm 11,9 km/h (2 Bft) O-NO 67 5 min 10,6 C 12,8 km/h (3 Bft)
07.06.2016 13:35 23,1 C 26,1 C 45 % 1023,2 hPa 0,0 mm 10,7 km/h (2 Bft) NO 45 5 min 10,5 C 5,4 km/h (1 Bft)
07.06.2016 13:40 23,4 C 26,7 C 44 % 1023,2 hPa 0,0 mm 5,4 km/h (1 Bft) O-SO 112 0 min 10,4 C 6,6 km/h (2 Bft)
07.06.2016 13:45 23,4 C 26,6 C 46 % 1023,2 hPa 0,0 mm 3,0 km/h (1 Bft) N-NO 22 0 min 11,1 C 0,0 km/h (0 Bft)
07.06.2016 13:50 22,9 C 25,8 C 49 % 1023,1 hPa 0,0 mm 5,4 km/h (1 Bft) W-NW 292 5 min 11,6 C 3,0 km/h (1 Bft)
07.06.2016 13:53 22,5 C 25,0 C 49 % 1023,1 hPa 0,0 mm 6,3 km/h (2 Bft) N-NO 22 3 min 11,2 C 5,1 km/h (1 Bft)
07.06.2016 13:54 22,5 C 25,0 C 49 % 1023,1 hPa 0,0 mm 6,3 km/h (2 Bft) N-NO 22 1 min 11,2 C 5,1 km/h (1 Bft)
07.06.2016 13:55 22,5 C 25,0 C 49 % 1023,1 hPa 0,0 mm 6,3 km/h (2 Bft) N-NO 22 1 min 11,2 C 5,1 km/h (1 Bft)
07.06.2016 14:00 22,3 C 24,1 C 48 % 1023,1 hPa 0,0 mm 6,6 km/h (2 Bft) N-NO 22 0 min 10,8 C 8,6 km/h (2 Bft)
07.06.2016 14:05 22,9 C 24,8 C 49 % 1023,1 hPa 0,0 mm 6,9 km/h (2 Bft) NO 45 0 min 11,6 C 5,4 km/h (1 Bft)
07.06.2016 14:10 23,7 C 27,3 C 44 % 1022,9 hPa 0,0 mm 7,5 km/h (2 Bft) NO 45 5 min 10,7 C 7,7 km/h (2 Bft)
07.06.2016 14:15 23,8 C 28,2 C 46 % 1022,9 hPa 0,0 mm 7,2 km/h (2 Bft) NW 315 5 min 11,5 C 8,9 km/h (2 Bft)
07.06.2016 14:20 24,0 C 28,7 C 44 % 1022,9 hPa 0,0 mm 9,2 km/h (2 Bft) N-NO 22 5 min 11,0 C 13,7 km/h (3 Bft)
07.06.2016 14:25 24,0 C 28,8 C 42 % 1022,9 hPa 0,0 mm 10,7 km/h (2 Bft) NO 45 5 min 10,3 C 15,2 km/h (3 Bft)
07.06.2016 14:30 24,1 C 29,2 C 42 % 1022,7 hPa 0,0 mm 9,5 km/h (2 Bft) NO 45 5 min 10,4 C 19,4 km/h (3 Bft)
07.06.2016 14:35 24,2 C 29,7 C 43 % 1022,7 hPa 0,0 mm 7,7 km/h (2 Bft) O 90 5 min 10,8 C 9,2 km/h (2 Bft)
07.06.2016 14:40 24,3 C 30,2 C 44 % 1022,7 hPa 0,0 mm 7,2 km/h (2 Bft) O 90 5 min 11,3 C 11,9 km/h (2 Bft)
07.06.2016 14:45 24,3 C 30,4 C 42 % 1022,7 hPa 0,0 mm 6,9 km/h (2 Bft) N-NO 22 5 min 10,6 C 7,7 km/h (2 Bft)
07.06.2016 14:50 24,7 C 30,8 C 44 % 1022,6 hPa 0,0 mm 6,9 km/h (2 Bft) N-NO 22 5 min 11,6 C 15,5 km/h (3 Bft)
07.06.2016 14:55 24,7 C 30,6 C 44 % 1022,6 hPa 0,0 mm 8,0 km/h (2 Bft) O-NO 67 5 min 11,6 C 7,5 km/h (2 Bft)
07.06.2016 15:00 24,3 C 30,5 C 43 % 1022,6 hPa 0,0 mm 8,3 km/h (2 Bft) N 360 5 min 10,9 C 0,0 km/h (0 Bft)
07.06.2016 15:05 24,4 C 30,4 C 43 % 1022,6 hPa 0,0 mm 8,0 km/h (2 Bft) NO 45 5 min 11,0 C 14,0 km/h (3 Bft)
07.06.2016 15:10 23,8 C 28,6 C 43 % 1022,4 hPa 0,0 mm 8,3 km/h (2 Bft) N-NO 22 5 min 10,5 C 9,2 km/h (2 Bft)
07.06.2016 15:15 23,7 C 27,8 C 44 % 1022,4 hPa 0,0 mm 6,6 km/h (2 Bft) N 360 5 min 10,7 C 5,4 km/h (1 Bft)
07.06.2016 15:20 23,6 C 27,0 C 45 % 1022,4 hPa 0,0 mm 4,2 km/h (1 Bft) NW 315 5 min 11,0 C 10,7 km/h (2 Bft)
07.06.2016 15:25 23,6 C 26,9 C 45 % 1022,4 hPa 0,0 mm 5,1 km/h (1 Bft) N-NW 337 5 min 11,0 C 6,3 km/h (2 Bft)
07.06.2016 15:30 23,2 C 26,5 C 48 % 1022,3 hPa 0,0 mm 2,7 km/h (1 Bft) O-NO 67 5 min 11,6 C 0,0 km/h (0 Bft)
07.06.2016 15:35 22,9 C 25,9 C 47 % 1022,3 hPa 0,0 mm 0,6 km/h (0 Bft) SO 135 5 min 11,0 C 0,0 km/h (0 Bft)
07.06.2016 15:40 22,6 C 25,0 C 48 % 1022,3 hPa 0,0 mm 0,0 km/h (0 Bft) O-SO 112 0 min 11,0 C 0,0 km/h (0 Bft)
07.06.2016 15:45 22,3 C 24,7 C 49 % 1022,3 hPa 0,0 mm 0,0 km/h (0 Bft) N-NW 337 0 min 11,1 C 0,0 km/h (0 Bft)
07.06.2016 15:50 22,3 C 24,1 C 51 % 1022,2 hPa 0,0 mm 0,6 km/h (0 Bft) N-NO 22 0 min 11,7 C 0,0 km/h (0 Bft)
07.06.2016 15:55 22,1 C 24,0 C 49 % 1022,2 hPa 0,0 mm 0,6 km/h (0 Bft) O-NO 67 0 min 10,9 C 0,0 km/h (0 Bft)
07.06.2016 16:00 21,8 C 23,8 C 52 % 1022,2 hPa 0,0 mm 0,6 km/h (0 Bft) NO 45 0 min 11,5 C 6,0 km/h (2 Bft)
07.06.2016 16:05 21,8 C 23,6 C 52 % 1022,2 hPa 0,0 mm 1,5 km/h (1 Bft) O-SO 112 0 min 11,5 C 0,0 km/h (0 Bft)
07.06.2016 16:10 21,8 C 23,6 C 52 % 1021,9 hPa 0,0 mm 1,5 km/h (1 Bft) NO 45 0 min 11,5 C 0,0 km/h (0 Bft)
07.06.2016 16:15 21,9 C 23,7 C 52 % 1021,9 hPa 0,0 mm 0,0 km/h (0 Bft) O-NO 67 0 min 11,6 C 0,0 km/h (0 Bft)
07.06.2016 16:20 22,1 C 23,9 C 52 % 1021,9 hPa 0,0 mm 0,0 km/h (0 Bft) O-NO 67 0 min 11,8 C 0,0 km/h (0 Bft)
07.06.2016 16:25 22,3 C 24,0 C 52 % 1021,9 hPa 0,0 mm 0,0 km/h (0 Bft) O 90 0 min 12,0 C 0,0 km/h (0 Bft)
07.06.2016 16:30 22,4 C 24,2 C 52 % 1021,8 hPa 0,0 mm 0,0 km/h (0 Bft) W-NW 292 0 min 12,1 C 0,0 km/h (0 Bft)
07.06.2016 16:35 22,1 C 24,2 C 52 % 1021,8 hPa 0,0 mm 0,6 km/h (0 Bft) NW 315 0 min 11,8 C 0,0 km/h (0 Bft)
07.06.2016 16:40 21,8 C 23,7 C 55 % 1021,8 hPa 0,0 mm 2,7 km/h (1 Bft) NW 315 0 min 12,4 C 0,0 km/h (0 Bft)
07.06.2016 16:45 21,8 C 23,6 C 56 % 1021,8 hPa 0,0 mm 2,7 km/h (1 Bft) W 270 0 min 12,6 C 6,0 km/h (2 Bft)
07.06.2016 16:50 21,8 C 23,8 C 56 % 1021,8 hPa 0,0 mm 0,9 km/h (0 Bft) W-NW 292 0 min 12,6 C 0,0 km/h (0 Bft)
07.06.2016 16:53 22,0 C 24,2 C 56 % 1021,8 hPa 0,0 mm 0,6 km/h (0 Bft) W-NW 292 0 min 12,8 C 0,0 km/h (0 Bft)
07.06.2016 16:55 22,0 C 24,2 C 56 % 1021,8 hPa 0,0 mm 0,6 km/h (0 Bft) W-NW 292 0 min 12,8 C 0,0 km/h (0 Bft)
07.06.2016 17:00 22,1 C 24,8 C 56 % 1021,8 hPa 0,0 mm 0,0 km/h (0 Bft) SW 225 0 min 12,9 C 0,0 km/h (0 Bft)
07.06.2016 17:05 22,4 C 25,4 C 55 % 1021,8 hPa 0,0 mm 0,0 km/h (0 Bft) N-NW 337 0 min 12,9 C 0,0 km/h (0 Bft)
07.06.2016 17:10 22,6 C 25,9 C 55 % 1021,4 hPa 0,0 mm 1,5 km/h (1 Bft) W 270 0 min 13,1 C 0,0 km/h (0 Bft)
07.06.2016 17:15 22,8 C 26,2 C 54 % 1021,4 hPa 0,0 mm 2,1 km/h (1 Bft) N-NO 22 0 min 13,0 C 8,0 km/h (2 Bft)
07.06.2016 17:20 22,7 C 26,0 C 49 % 1021,4 hPa 0,0 mm 2,4 km/h (1 Bft) N-NO 22 5 min 11,4 C 0,0 km/h (0 Bft)
07.06.2016 17:25 22,8 C 26,1 C 48 % 1021,4 hPa 0,0 mm 4,2 km/h (1 Bft) O-NO 67 5 min 11,2 C 8,3 km/h (2 Bft)
07.06.2016 17:30 22,6 C 26,1 C 48 % 1021,4 hPa 0,0 mm 3,9 km/h (1 Bft) O 90 5 min 11,0 C 11,6 km/h (2 Bft)
07.06.2016 17:35 22,7 C 25,7 C 48 % 1021,4 hPa 0,0 mm 4,2 km/h (1 Bft) O-NO 67 5 min 11,1 C 4,5 km/h (1 Bft)
07.06.2016 17:40 22,5 C 25,4 C 48 % 1021,4 hPa 0,0 mm 3,6 km/h (1 Bft) O-NO 67 5 min 10,9 C 5,1 km/h (1 Bft)
07.06.2016 17:45 22,6 C 25,1 C 48 % 1021,4 hPa 0,0 mm 3,0 km/h (1 Bft) NW 315 0 min 11,0 C 0,0 km/h (0 Bft)
07.06.2016 17:50 22,7 C 25,2 C 49 % 1021,1 hPa 0,0 mm 4,2 km/h (1 Bft) W-NW 292 0 min 11,4 C 8,3 km/h (2 Bft)
07.06.2016 17:55 22,6 C 24,9 C 49 % 1021,1 hPa 0,0 mm 3,3 km/h (1 Bft) W-NW 292 0 min 11,3 C 6,9 km/h (2 Bft)
07.06.2016 18:00 22,4 C 24,3 C 49 % 1021,1 hPa 0,0 mm 5,4 km/h (1 Bft) NO 45 0 min 11,2 C 5,7 km/h (1 Bft)
07.06.2016 18:05 22,4 C 24,0 C 49 % 1021,1 hPa 0,0 mm 6,6 km/h (2 Bft) O-NO 67 0 min 11,2 C 8,3 km/h (2 Bft)
07.06.2016 18:10 22,4 C 23,8 C 48 % 1021,1 hPa 0,0 mm 7,2 km/h (2 Bft) S-SW 202 0 min 10,8 C 20,0 km/h (4 Bft)
07.06.2016 18:15 22,4 C 23,8 C 48 % 1021,1 hPa 0,0 mm 5,7 km/h (1 Bft) N-NO 22 0 min 10,8 C 0,0 km/h (0 Bft)
07.06.2016 18:20 22,2 C 23,6 C 48 % 1021,1 hPa 0,0 mm 3,0 km/h (1 Bft) O-NO 67 0 min 10,7 C 3,6 km/h (1 Bft)
07.06.2016 18:25 22,2 C 23,4 C 49 % 1021,1 hPa 0,0 mm 2,7 km/h (1 Bft) N-NO 22 0 min 11,0 C 8,3 km/h (2 Bft)
07.06.2016 18:30 22,1 C 23,1 C 49 % 1020,9 hPa 0,0 mm 4,8 km/h (1 Bft) O-NO 67 0 min 10,9 C 6,6 km/h (2 Bft)
07.06.2016 18:35 21,9 C 22,9 C 49 % 1020,9 hPa 0,0 mm 5,1 km/h (1 Bft) N-NO 22 0 min 10,7 C 9,2 km/h (2 Bft)
07.06.2016 18:40 21,8 C 22,8 C 51 % 1020,9 hPa 0,0 mm 4,5 km/h (1 Bft) NW 315 0 min 11,2 C 0,0 km/h (0 Bft)
07.06.2016 18:45 21,7 C 22,8 C 52 % 1020,9 hPa 0,0 mm 3,6 km/h (1 Bft) N-NO 22 0 min 11,4 C 0,0 km/h (0 Bft)
07.06.2016 18:50 21,6 C 22,8 C 52 % 1021,1 hPa 0,0 mm 1,8 km/h (1 Bft) N-NO 22 0 min 11,3 C 5,1 km/h (1 Bft)
07.06.2016 18:55 21,6 C 23,5 C 51 % 1021,1 hPa 0,0 mm 4,2 km/h (1 Bft) NO 45 0 min 11,0 C 18,8 km/h (3 Bft)
07.06.2016 19:00 21,7 C 24,4 C 52 % 1021,1 hPa 0,0 mm 6,3 km/h (2 Bft) N-NO 22 5 min 11,4 C 3,6 km/h (1 Bft)
07.06.2016 19:05 21,7 C 24,3 C 52 % 1021,1 hPa 0,0 mm 6,3 km/h (2 Bft) NO 45 5 min 11,4 C 11,3 km/h (2 Bft)
07.06.2016 19:10 21,7 C 24,0 C 52 % 1021,1 hPa 0,0 mm 4,8 km/h (1 Bft) W 270 0 min 11,4 C 11,9 km/h (2 Bft)
07.06.2016 19:15 21,6 C 23,8 C 53 % 1021,1 hPa 0,0 mm 4,2 km/h (1 Bft) N-NO 22 5 min 11,6 C 0,0 km/h (0 Bft)
07.06.2016 19:20 21,3 C 23,0 C 54 % 1021,1 hPa 0,0 mm 1,5 km/h (1 Bft) W-SW 247 0 min 11,6 C 0,0 km/h (0 Bft)
07.06.2016 19:25 21,2 C 23,1 C 54 % 1021,1 hPa 0,0 mm 0,0 km/h (0 Bft) O 90 0 min 11,5 C 0,0 km/h (0 Bft)
07.06.2016 19:30 21,0 C 23,2 C 54 % 1021,2 hPa 0,0 mm 0,0 km/h (0 Bft) NO 45 0 min 11,3 C 0,0 km/h (0 Bft)
07.06.2016 19:35 20,8 C 22,8 C 55 % 1021,2 hPa 0,0 mm 0,0 km/h (0 Bft) O-SO 112 0 min 11,4 C 0,0 km/h (0 Bft)
07.06.2016 19:40 20,5 C 22,3 C 56 % 1021,2 hPa 0,0 mm 0,0 km/h (0 Bft) O-SO 112 0 min 11,4 C 0,0 km/h (0 Bft)
07.06.2016 19:45 20,6 C 22,5 C 56 % 1021,2 hPa 0,0 mm 0,0 km/h (0 Bft) S-SO 157 0 min 11,5 C 0,0 km/h (0 Bft)
07.06.2016 19:50 20,6 C 22,8 C 56 % 1021,2 hPa 0,0 mm 0,0 km/h (0 Bft) S 180 0 min 11,5 C 0,0 km/h (0 Bft)
07.06.2016 19:53 20,5 C 22,9 C 56 % 1021,2 hPa 0,0 mm 0,0 km/h (0 Bft) SO 135 0 min 11,4 C 0,0 km/h (0 Bft)
07.06.2016 19:56 20,5 C 22,9 C 56 % 1021,2 hPa 0,0 mm 0,0 km/h (0 Bft) SO 135 0 min 11,4 C 0,0 km/h (0 Bft)
07.06.2016 20:00 20,4 C 23,1 C 57 % 1021,2 hPa 0,0 mm 0,0 km/h (0 Bft) S-SO 157 4 min 11,6 C 0,0 km/h (0 Bft)
07.06.2016 20:05 20,2 C 22,8 C 57 % 1021,2 hPa 0,0 mm 0,0 km/h (0 Bft) S-SO 157 5 min 11,4 C 0,0 km/h (0 Bft)
07.06.2016 20:10 19,9 C 21,8 C 57 % 1021,4 hPa 0,0 mm 0,0 km/h (0 Bft) O-SO 112 0 min 11,1 C 0,0 km/h (0 Bft)
07.06.2016 20:15 19,6 C 21,2 C 58 % 1021,4 hPa 0,0 mm 0,0 km/h (0 Bft) SO 135 0 min 11,1 C 0,0 km/h (0 Bft)
07.06.2016 20:20 19,3 C 20,3 C 58 % 1021,4 hPa 0,0 mm 0,0 km/h (0 Bft) SO 135 0 min 10,8 C 0,0 km/h (0 Bft)
07.06.2016 20:25 19,3 C 19,8 C 58 % 1021,4 hPa 0,0 mm 0,0 km/h (0 Bft) O-SO 112 0 min 10,8 C 0,0 km/h (0 Bft)
07.06.2016 20:30 19,0 C 19,3 C 59 % 1021,1 hPa 0,0 mm 0,0 km/h (0 Bft) SO 135 0 min 10,8 C 0,0 km/h (0 Bft)
07.06.2016 20:35 18,7 C 19,0 C 59 % 1021,1 hPa 0,0 mm 0,0 km/h (0 Bft) SO 135 0 min 10,5 C 0,0 km/h (0 Bft)
07.06.2016 20:40 18,1 C 18,5 C 60 % 1021,1 hPa 0,0 mm 0,0 km/h (0 Bft) S 180 0 min 10,2 C 0,0 km/h (0 Bft)
07.06.2016 20:45 18,1 C 18,3 C 61 % 1021,1 hPa 0,0 mm 0,0 km/h (0 Bft) S-SO 157 0 min 10,5 C 0,0 km/h (0 Bft)
07.06.2016 20:50 17,7 C 18,0 C 64 % 1021,0 hPa 0,0 mm 0,0 km/h (0 Bft) S-SO 157 0 min 10,8 C 0,0 km/h (0 Bft)
07.06.2016 20:55 17,3 C 17,7 C 66 % 1021,0 hPa 0,0 mm 0,0 km/h (0 Bft) SO 135 0 min 10,9 C 0,0 km/h (0 Bft)
07.06.2016 21:00 17,2 C 17,3 C 66 % 1021,0 hPa 0,0 mm 0,0 km/h (0 Bft) S-SO 157 0 min 10,8 C 0,0 km/h (0 Bft)
07.06.2016 21:05 17,0 C 17,2 C 66 % 1021,0 hPa 0,0 mm 0,0 km/h (0 Bft) S 180 0 min 10,6 C 0,0 km/h (0 Bft)
07.06.2016 21:10 16,3 C 16,7 C 68 % 1021,1 hPa 0,0 mm 0,0 km/h (0 Bft) O-NO 67 0 min 10,4 C 0,0 km/h (0 Bft)
07.06.2016 21:15 16,3 C 16,3 C 68 % 1021,1 hPa 0,0 mm 0,0 km/h (0 Bft) S 180 0 min 10,4 C 0,0 km/h (0 Bft)
07.06.2016 21:20 15,9 C 16,0 C 72 % 1021,1 hPa 0,0 mm 0,0 km/h (0 Bft) SO 135 0 min 10,9 C 0,0 km/h (0 Bft)
07.06.2016 21:25 15,7 C 15,9 C 73 % 1021,1 hPa 0,0 mm 0,0 km/h (0 Bft) SO 135 0 min 10,9 C 0,0 km/h (0 Bft)
07.06.2016 21:30 15,9 C 16,1 C 72 % 1021,2 hPa 0,0 mm 0,0 km/h (0 Bft) S-SO 157 0 min 10,9 C 0,0 km/h (0 Bft)
07.06.2016 21:35 16,0 C 15,9 C 71 % 1021,2 hPa 0,0 mm 0,0 km/h (0 Bft) S-SO 157 0 min 10,7 C 0,0 km/h (0 Bft)
07.06.2016 21:40 15,6 C 15,7 C 73 % 1021,2 hPa 0,0 mm 0,0 km/h (0 Bft) S-SO 157 0 min 10,8 C 0,0 km/h (0 Bft)
07.06.2016 21:45 15,3 C 15,5 C 73 % 1021,2 hPa 0,0 mm 0,0 km/h (0 Bft) SO 135 0 min 10,5 C 0,0 km/h (0 Bft)
07.06.2016 21:50 15,2 C 15,2 C 74 % 1021,5 hPa 0,0 mm 0,0 km/h (0 Bft) S-SO 157 0 min 10,6 C 0,0 km/h (0 Bft)
07.06.2016 21:55 14,9 C 14,9 C 74 % 1021,5 hPa 0,0 mm 0,0 km/h (0 Bft) S 180 0 min 10,3 C 0,0 km/h (0 Bft)
07.06.2016 22:00 14,6 C 14,6 C 74 % 1021,5 hPa 0,0 mm 0,0 km/h (0 Bft) N-NO 22 0 min 10,0 C 0,0 km/h (0 Bft)
07.06.2016 22:05 14,5 C 14,4 C 74 % 1021,5 hPa 0,0 mm 0,0 km/h (0 Bft) S 180 0 min 9,9 C 0,0 km/h (0 Bft)
07.06.2016 22:10 14,3 C 14,2 C 74 % 1021,6 hPa 0,0 mm 0,0 km/h (0 Bft) SW 225 0 min 9,7 C 0,0 km/h (0 Bft)
07.06.2016 22:15 14,2 C 14,3 C 75 % 1021,6 hPa 0,0 mm 0,0 km/h (0 Bft) S 180 0 min 9,8 C 0,0 km/h (0 Bft)
07.06.2016 22:20 14,3 C 14,2 C 75 % 1021,6 hPa 0,0 mm 0,0 km/h (0 Bft) SW 225 0 min 9,9 C 0,0 km/h (0 Bft)
07.06.2016 22:25 14,2 C 14,1 C 75 % 1021,6 hPa 0,0 mm 0,0 km/h (0 Bft) SO 135 0 min 9,8 C 0,0 km/h (0 Bft)
07.06.2016 22:30 14,2 C 14,1 C 75 % 1021,5 hPa 0,0 mm 0,0 km/h (0 Bft) N-NW 337 0 min 9,8 C 0,0 km/h (0 Bft)
07.06.2016 22:35 14,1 C 13,9 C 75 % 1021,5 hPa 0,0 mm 0,0 km/h (0 Bft) NW 315 0 min 9,7 C 0,0 km/h (0 Bft)
07.06.2016 22:40 14,0 C 13,6 C 75 % 1021,5 hPa 0,0 mm 0,0 km/h (0 Bft) N-NW 337 0 min 9,6 C 0,0 km/h (0 Bft)
07.06.2016 22:45 13,9 C 13,4 C 75 % 1021,5 hPa 0,0 mm 0,0 km/h (0 Bft) N-NW 337 0 min 9,5 C 0,0 km/h (0 Bft)
07.06.2016 22:50 13,8 C 13,2 C 75 % 1021,4 hPa 0,0 mm 0,0 km/h (0 Bft) N-NW 337 0 min 9,4 C 0,0 km/h (0 Bft)
07.06.2016 22:55 13,7 C 13,1 C 75 % 1021,4 hPa 0,0 mm 0,0 km/h (0 Bft) N-NW 337 0 min 9,3 C 0,0 km/h (0 Bft)
07.06.2016 22:57 13,7 C 13,1 C 75 % 1021,4 hPa 0,0 mm 0,0 km/h (0 Bft) N-NW 337 0 min 9,3 C 0,0 km/h (0 Bft)
07.06.2016 23:00 13,5 C 13,0 C 76 % 1021,4 hPa 0,0 mm 0,0 km/h (0 Bft) N-NW 337 0 min 9,4 C 0,0 km/h (0 Bft)
07.06.2016 23:05 13,4 C 12,9 C 76 % 1021,4 hPa 0,0 mm 0,0 km/h (0 Bft) NO 45 0 min 9,3 C 0,0 km/h (0 Bft)
07.06.2016 23:10 13,2 C 12,8 C 76 % 1021,6 hPa 0,0 mm 0,0 km/h (0 Bft) NW 315 0 min 9,1 C 0,0 km/h (0 Bft)
07.06.2016 23:15 13,1 C 12,6 C 77 % 1021,6 hPa 0,0 mm 0,0 km/h (0 Bft) NW 315 0 min 9,2 C 0,0 km/h (0 Bft)
07.06.2016 23:18 13,1 C 12,6 C 77 % 1021,6 hPa 0,0 mm 0,0 km/h (0 Bft) NW 315 0 min 9,2 C 0,0 km/h (0 Bft)
07.06.2016 23:20 13,0 C 12,6 C 77 % 1021,6 hPa 0,0 mm 0,0 km/h (0 Bft) NO 45 0 min 9,1 C 0,0 km/h (0 Bft)
07.06.2016 23:25 12,9 C 12,4 C 78 % 1021,6 hPa 0,0 mm 0,0 km/h (0 Bft) NO 45 0 min 9,2 C 0,0 km/h (0 Bft)
07.06.2016 23:30 12,8 C 12,3 C 78 % 1021,7 hPa 0,0 mm 0,0 km/h (0 Bft) W-NW 292 0 min 9,1 C 0,0 km/h (0 Bft)
07.06.2016 23:35 12,7 C 12,2 C 78 % 1021,7 hPa 0,0 mm 0,0 km/h (0 Bft) NW 315 0 min 9,0 C 0,0 km/h (0 Bft)
07.06.2016 23:40 12,6 C 12,1 C 78 % 1021,7 hPa 0,0 mm 0,0 km/h (0 Bft) N-NW 337 0 min 8,9 C 0,0 km/h (0 Bft)
07.06.2016 23:45 12,6 C 12,1 C 78 % 1021,7 hPa 0,0 mm 0,0 km/h (0 Bft) N-NO 22 0 min 8,9 C 0,0 km/h (0 Bft)
07.06.2016 23:50 12,6 C 12,0 C 79 % 1021,5 hPa 0,0 mm 0,0 km/h (0 Bft) N-NW 337 0 min 9,1 C 0,0 km/h (0 Bft)
07.06.2016 23:55 12,5 C 11,9 C 79 % 1021,5 hPa 0,0 mm 0,0 km/h (0 Bft) N-NW 337 0 min 9,0 C 0,0 km/h (0 Bft)
_ Min-Zeit 05:40 05:30 14:45 05:25 - 23:55 - - - 05:40 23:55
Minimum _ 9,1 C 5,8 C 42 % 1020,2 hPa - 0,0 km/h (0 Bft) - - - 7,1 C 0,0 km/h (0 Bft)
_ Max-Zeit 14:55 14:50 06:50 12:45 23:55 13:25 - - 20:05 09:00 12:55
Maximum _ 24,7 C 30,8 C 87 % 1023,8 hPa 0,0 mm 13,4 km/h
N-NO (3 Bft)
- - 5 min 14,5 C 27,7 km/h
N-NO (4 Bft)
Durchschnitt _ 17,7 C 19,2 C 67 % 1021,7 hPa #0,0 mm 2,3 km/h (1 Bft) N-NO - #8:04 h 10,8 C 3,2 km/h (1 Bft)